В основном облачно
В основном облачно
Пасмурно
Пасмурно
Пасмурно
Пасмурно
Пасмурно
(°C)
-4°
-4°
-3°
-3°
-3°
-3°
-3°
-3°
-3°
-3°
-4°
-4°
-4°
-4°
(°C)
-10°
-10°
-10°
-10°
-10°
-11°
-11°
ЮЗ
ЮЮЗ
ЮЮЗ
ЮЮЗ
ЮЮЗ
ЮЮЗ
ЮЮЗ
(km/h)
17-23
21-29
21-29
20-28
20-28
20-27
18-26
(мм)
0
0
0
0
0
0
0
(%)
0
0
0
0
0
0
0

Высота солнцестояния

/ 26.7°
sun-icon
UV 2
06:32
17:17
Убывающая луна (234°)
23:10
07:41

METAR для 55.61°С 49.28°В (UWKD)

Время Условия Температура/
Точка росы
Ветер Видимость Погода Облачность Давление Изменить Необработанный
VFR -3°C / °C 210º 10kt 9700m - Clouds and Visibility OK 1030 No Significant change. Runway 11: Compacted snow, 1-10% contamination with <1mm, friction coefficient 0.50. UWKD 290830Z 21005MPS CAVOK M03/M10 Q1030 R11/810050 NOSIG RMK QFE762/1016
VFR -3°C / °C 190º 8kt 9700m - Clouds and Visibility OK 1030 No Significant change. Runway 11: Compacted snow, 1-10% contamination with <1mm, friction coefficient 0.50. UWKD 290800Z 19004MPS CAVOK M03/M10 Q1030 R11/810050 NOSIG RMK QFE762/1016
VFR -4°C / °C 200º 8kt 9700m - Clouds and Visibility OK 1030 No Significant change. Runway 11: Compacted snow, 1-10% contamination with <1mm, friction coefficient 0.50. UWKD 290730Z 20004MPS CAVOK M04/M11 Q1030 R11/810050 NOSIG RMK QFE762/1016
VFR -4°C / °C 200º variable 180º to 240º 8kt 9700m - Clouds and Visibility OK 1030 No Significant change. Runway 11: Compacted snow, 1-10% contamination with <1mm, friction coefficient 0.50. UWKD 290700Z 20004MPS 180V240 CAVOK M04/M11 Q1030 R11/810050 NOSIG RMK QFE762/1016
VFR -5°C / °C 200º 10kt 9700m - Clouds and Visibility OK 1030 No Significant change. Runway 11: Compacted snow, 1-10% contamination with <1mm, friction coefficient 0.50. UWKD 290630Z 20005MPS CAVOK M05/M12 Q1030 R11/810050 NOSIG RMK QFE762/1016
VFR -5°C / °C 200º 12kt 9700m - Clouds and Visibility OK 1030 No Significant change. Runway 11: Compacted snow, 1-10% contamination with <1mm, friction coefficient 0.50. UWKD 290600Z 20006MPS CAVOK M05/M12 Q1030 R11/810050 NOSIG RMK QFE762/1016
VFR -6°C / °C 190º 10kt 9700m - Clouds and Visibility OK 1030 No Significant change. Runway 11: Compacted snow, 1-10% contamination with <1mm, friction coefficient 0.50. UWKD 290530Z 19005MPS CAVOK M06/M13 Q1030 R11/810050 NOSIG RMK QFE762/1016
VFR -6°C / °C 190º 10kt 9700m - Clouds and Visibility OK 1030 No Significant change UWKD 290500Z 19005MPS CAVOK M06/M13 Q1030 R11/CLRD60 NOSIG RMK QFE762/1016
VFR -6°C / °C 190º 10kt 9700m - Clouds and Visibility OK 1030 No Significant change UWKD 290430Z 19005MPS CAVOK M06/M13 Q1030 R11/CLRD60 NOSIG RMK QFE762/1016
VFR -6°C / °C 190º 10kt 9700m - Clouds and Visibility OK 1030 No Significant change UWKD 290400Z 19005MPS CAVOK M06/M13 Q1030 R11/CLRD60 NOSIG RMK QFE762/1017
VFR -6°C / °C 190º 8kt 9700m - Clouds and Visibility OK 1030 No Significant change UWKD 290330Z 19004MPS CAVOK M06/M13 Q1030 R11/60D NOSIG RMK QFE762/1017
VFR -6°C / °C 190º 10kt 9700m - Clouds and Visibility OK 1030 No Significant change UWKD 290300Z 19005MPS CAVOK M06/M14 Q1030 R11/60D NOSIG RMK QFE762/1017
VFR -6°C / °C 190º 12kt 9700m - Clouds and Visibility OK 1030 No Significant change UWKD 290230Z 19006MPS CAVOK M06/M14 Q1030 R11/CLRD60 NOSIG RMK QFE762/1017
VFR -6°C / °C 200º 12kt 9700m - Clouds and Visibility OK 1030 No Significant change UWKD 290200Z 20006MPS CAVOK M06/M14 Q1030 R11/60D NOSIG RMK QFE762/1017
VFR -6°C / °C 200º 14kt 9700m - Clouds and Visibility OK 1030 No Significant change UWKD 290130Z 20007MPS CAVOK M06/M14 Q1030 R11/CLRD60 NOSIG RMK QFE762/1017
VFR -5°C / °C 200º 14kt 9700m - Clouds and Visibility OK 1030 No Significant change UWKD 290100Z 20007MPS CAVOK M05/M14 Q1030 R11/60D NOSIG RMK QFE762/1017
VFR -5°C / °C 200º 10kt 9700m - Clouds and Visibility OK 1030 No Significant change UWKD 290030Z 20005MPS CAVOK M05/M14 Q1030 R11/CLRD60 NOSIG RMK QFE763/1017
VFR -5°C / °C 200º 10kt 9700m - Clouds and Visibility OK 1031 No Significant change UWKD 290000Z 20005MPS CAVOK M05/M14 Q1031 R11/CLRD60 NOSIG RMK QFE763/1017
VFR -5°C / °C 190º 12kt 9700m - Clouds and Visibility OK 1031 No Significant change UWKD 282330Z 19006MPS CAVOK M05/M14 Q1031 R11/60D NOSIG RMK QFE763/1017
VFR -6°C / °C 190º 10kt 9700m - Clouds and Visibility OK 1031 No Significant change UWKD 282300Z 19005MPS CAVOK M06/M14 Q1031 R11/CLRD60 NOSIG RMK QFE763/1017
VFR -6°C / °C 190º 12kt 9700m - Clouds and Visibility OK 1031 No Significant change UWKD 282230Z 19006MPS CAVOK M06/M14 Q1031 R11/CLRD60 NOSIG RMK QFE763/1017
VFR -5°C / °C 190º 14kt 9700m - Clouds and Visibility OK 1031 No Significant change UWKD 282200Z 19007MPS CAVOK M05/M14 Q1031 R11/CLRD60 NOSIG RMK QFE763/1017
VFR -5°C / °C 200º 14kt 9700m - Clouds and Visibility OK 1031 No Significant change UWKD 282130Z 20007MPS CAVOK M05/M15 Q1031 R11/60D NOSIG RMK QFE763/1017
VFR -5°C / °C 200º 12kt 9700m - Clouds and Visibility OK 1031 No Significant change UWKD 282100Z 20006MPS CAVOK M05/M15 Q1031 R11/CLRD60 NOSIG RMK QFE763/1017

VFR

-3°C / °C

[Больше]
Ветер 210º 10kt
Видимость 9700m
Погода -
Облачность Clouds and Visibility OK
Давление 1030
Изменить No Significant change. Runway 11: Compacted snow, 1-10% contamination with <1mm, friction coefficient 0.50.
Необработанный UWKD 290830Z 21005MPS CAVOK M03/M10 Q1030 R11/810050 NOSIG RMK QFE762/1016

VFR

-3°C / °C

[Больше]
Ветер 190º 8kt
Видимость 9700m
Погода -
Облачность Clouds and Visibility OK
Давление 1030
Изменить No Significant change. Runway 11: Compacted snow, 1-10% contamination with <1mm, friction coefficient 0.50.
Необработанный UWKD 290800Z 19004MPS CAVOK M03/M10 Q1030 R11/810050 NOSIG RMK QFE762/1016

VFR

-4°C / °C

[Больше]
Ветер 200º 8kt
Видимость 9700m
Погода -
Облачность Clouds and Visibility OK
Давление 1030
Изменить No Significant change. Runway 11: Compacted snow, 1-10% contamination with <1mm, friction coefficient 0.50.
Необработанный UWKD 290730Z 20004MPS CAVOK M04/M11 Q1030 R11/810050 NOSIG RMK QFE762/1016

VFR

-4°C / °C

[Больше]
Ветер 200º variable 180º to 240º 8kt
Видимость 9700m
Погода -
Облачность Clouds and Visibility OK
Давление 1030
Изменить No Significant change. Runway 11: Compacted snow, 1-10% contamination with <1mm, friction coefficient 0.50.
Необработанный UWKD 290700Z 20004MPS 180V240 CAVOK M04/M11 Q1030 R11/810050 NOSIG RMK QFE762/1016

VFR

-5°C / °C

[Больше]
Ветер 200º 10kt
Видимость 9700m
Погода -
Облачность Clouds and Visibility OK
Давление 1030
Изменить No Significant change. Runway 11: Compacted snow, 1-10% contamination with <1mm, friction coefficient 0.50.
Необработанный UWKD 290630Z 20005MPS CAVOK M05/M12 Q1030 R11/810050 NOSIG RMK QFE762/1016

VFR

-5°C / °C

[Больше]
Ветер 200º 12kt
Видимость 9700m
Погода -
Облачность Clouds and Visibility OK
Давление 1030
Изменить No Significant change. Runway 11: Compacted snow, 1-10% contamination with <1mm, friction coefficient 0.50.
Необработанный UWKD 290600Z 20006MPS CAVOK M05/M12 Q1030 R11/810050 NOSIG RMK QFE762/1016

VFR

-6°C / °C

[Больше]
Ветер 190º 10kt
Видимость 9700m
Погода -
Облачность Clouds and Visibility OK
Давление 1030
Изменить No Significant change. Runway 11: Compacted snow, 1-10% contamination with <1mm, friction coefficient 0.50.
Необработанный UWKD 290530Z 19005MPS CAVOK M06/M13 Q1030 R11/810050 NOSIG RMK QFE762/1016

VFR

-6°C / °C

[Больше]
Ветер 190º 10kt
Видимость 9700m
Погода -
Облачность Clouds and Visibility OK
Давление 1030
Изменить No Significant change
Необработанный UWKD 290500Z 19005MPS CAVOK M06/M13 Q1030 R11/CLRD60 NOSIG RMK QFE762/1016

VFR

-6°C / °C

[Больше]
Ветер 190º 10kt
Видимость 9700m
Погода -
Облачность Clouds and Visibility OK
Давление 1030
Изменить No Significant change
Необработанный UWKD 290430Z 19005MPS CAVOK M06/M13 Q1030 R11/CLRD60 NOSIG RMK QFE762/1016

VFR

-6°C / °C

[Больше]
Ветер 190º 10kt
Видимость 9700m
Погода -
Облачность Clouds and Visibility OK
Давление 1030
Изменить No Significant change
Необработанный UWKD 290400Z 19005MPS CAVOK M06/M13 Q1030 R11/CLRD60 NOSIG RMK QFE762/1017

VFR

-6°C / °C

[Больше]
Ветер 190º 8kt
Видимость 9700m
Погода -
Облачность Clouds and Visibility OK
Давление 1030
Изменить No Significant change
Необработанный UWKD 290330Z 19004MPS CAVOK M06/M13 Q1030 R11/60D NOSIG RMK QFE762/1017

VFR

-6°C / °C

[Больше]
Ветер 190º 10kt
Видимость 9700m
Погода -
Облачность Clouds and Visibility OK
Давление 1030
Изменить No Significant change
Необработанный UWKD 290300Z 19005MPS CAVOK M06/M14 Q1030 R11/60D NOSIG RMK QFE762/1017

VFR

-6°C / °C

[Больше]
Ветер 190º 12kt
Видимость 9700m
Погода -
Облачность Clouds and Visibility OK
Давление 1030
Изменить No Significant change
Необработанный UWKD 290230Z 19006MPS CAVOK M06/M14 Q1030 R11/CLRD60 NOSIG RMK QFE762/1017

VFR

-6°C / °C

[Больше]
Ветер 200º 12kt
Видимость 9700m
Погода -
Облачность Clouds and Visibility OK
Давление 1030
Изменить No Significant change
Необработанный UWKD 290200Z 20006MPS CAVOK M06/M14 Q1030 R11/60D NOSIG RMK QFE762/1017

VFR

-6°C / °C

[Больше]
Ветер 200º 14kt
Видимость 9700m
Погода -
Облачность Clouds and Visibility OK
Давление 1030
Изменить No Significant change
Необработанный UWKD 290130Z 20007MPS CAVOK M06/M14 Q1030 R11/CLRD60 NOSIG RMK QFE762/1017

VFR

-5°C / °C

[Больше]
Ветер 200º 14kt
Видимость 9700m
Погода -
Облачность Clouds and Visibility OK
Давление 1030
Изменить No Significant change
Необработанный UWKD 290100Z 20007MPS CAVOK M05/M14 Q1030 R11/60D NOSIG RMK QFE762/1017

VFR

-5°C / °C

[Больше]
Ветер 200º 10kt
Видимость 9700m
Погода -
Облачность Clouds and Visibility OK
Давление 1030
Изменить No Significant change
Необработанный UWKD 290030Z 20005MPS CAVOK M05/M14 Q1030 R11/CLRD60 NOSIG RMK QFE763/1017

VFR

-5°C / °C

[Больше]
Ветер 200º 10kt
Видимость 9700m
Погода -
Облачность Clouds and Visibility OK
Давление 1031
Изменить No Significant change
Необработанный UWKD 290000Z 20005MPS CAVOK M05/M14 Q1031 R11/CLRD60 NOSIG RMK QFE763/1017

VFR

-5°C / °C

[Больше]
Ветер 190º 12kt
Видимость 9700m
Погода -
Облачность Clouds and Visibility OK
Давление 1031
Изменить No Significant change
Необработанный UWKD 282330Z 19006MPS CAVOK M05/M14 Q1031 R11/60D NOSIG RMK QFE763/1017

VFR

-6°C / °C

[Больше]
Ветер 190º 10kt
Видимость 9700m
Погода -
Облачность Clouds and Visibility OK
Давление 1031
Изменить No Significant change
Необработанный UWKD 282300Z 19005MPS CAVOK M06/M14 Q1031 R11/CLRD60 NOSIG RMK QFE763/1017

VFR

-6°C / °C

[Больше]
Ветер 190º 12kt
Видимость 9700m
Погода -
Облачность Clouds and Visibility OK
Давление 1031
Изменить No Significant change
Необработанный UWKD 282230Z 19006MPS CAVOK M06/M14 Q1031 R11/CLRD60 NOSIG RMK QFE763/1017

VFR

-5°C / °C

[Больше]
Ветер 190º 14kt
Видимость 9700m
Погода -
Облачность Clouds and Visibility OK
Давление 1031
Изменить No Significant change
Необработанный UWKD 282200Z 19007MPS CAVOK M05/M14 Q1031 R11/CLRD60 NOSIG RMK QFE763/1017

VFR

-5°C / °C

[Больше]
Ветер 200º 14kt
Видимость 9700m
Погода -
Облачность Clouds and Visibility OK
Давление 1031
Изменить No Significant change
Необработанный UWKD 282130Z 20007MPS CAVOK M05/M15 Q1031 R11/60D NOSIG RMK QFE763/1017

VFR

-5°C / °C

[Больше]
Ветер 200º 12kt
Видимость 9700m
Погода -
Облачность Clouds and Visibility OK
Давление 1031
Изменить No Significant change
Необработанный UWKD 282100Z 20006MPS CAVOK M05/M15 Q1031 R11/CLRD60 NOSIG RMK QFE763/1017

TAF для 55.61°С 49.28°В (UWKD)

From till


Maximum Temperature -1ºC on . Minimum Temperature -8ºC on .
From till Wind 190º 10kt. Gust 23kt. Visibility 9700m. Scattered Clouds 2000ft.

Необработанный: TAF UWKD 290755Z 2909/0109 19005G12MPS 9999 SCT020 TXM01/2912Z TNM08/0103Z

Радарный и сверхкраткосрочный прогноз осадков для 55.61°С 49.28°В

Морось
Незначительные
Умеренные
Сильные
Очень Сильные
Град

Индикатор местности находится на 55.61°С 49.28°В. Эта анимация показывает радар осадков для выбранного диапазона времени, а также 2h прогноз. Оранжевые кресты обозначают молнию. Данные предоставлены nowcast.de (доступны в США, Европе, Австралии). Морось или небольшой снег могут быть невидимы для радара. Интенсивность осадков имеет цветовую кодировку - от бирюзового до красного.

Текущие спутниковые изображения и снимки дождя для 55.61°С 49.28°В

Указатель местности находится на 55.61°С 49.28°В. [Больше]

Спутниковое изображение в реальном времени сочетает в себе видимый свет в дневное время с инфракрасным излучением в ночное время. Ночью изображение получается не темным, так как инфракрасное излучение может обнаружить разницу температур. К сожалению, низкие облака и туман трудно отличить от температуры у поверхности земли и поэтому могут быть почти незаметны ночью. Спутниковые снимки Meteosat для Европы обновляются каждые 5 минут в режиме реального времени.Снимки GOES-16/GOES-17 (Северная и Южная Америка) и Химавари (Азия) обновляются каждые 10 минут.

Осадки оцениваются по данным радаров и спутников. Оценка осадков со спутников менее точна ночью, чем днем.

© 2024 meteoblue, NOAA Satellites GOES-16 and EUMETSAT. Данные о молниях предоставляются со стороны nowcast.

Обратно к последним данным
×
Привет,
похоже, что вы используете блокировщик рекламы.

Реклама необходима для поддержания нашего бесплатного сайта с уникальной детализацией и точностью.

Пожалуйста, внесите www.meteoblue.com в белый список вашего блокировщика рекламы или рассмотрите возможность покупки одного из наших продуктов:

У вас уже есть подписка?
Тогда, пожалуйста, логин.